Temp
79 79 78 78 76 76 76 76 75 75 76 76 77 76 76 76 76 74 75 74 74 74 74 76 76 77 75 76 76 75 75 74 74 75 76 76 76 76 77 77 77 77 77 77 77 76 76 77 76 76 76 76 76 75 77 78 78 78 79 78 77 76
78 78 79 80 80 80 78 78 78 78 77 76 75 76 76 77 78 73 74 71 72 74 74 74 75 77 76 76 76 75 75 75 74 74 75 76 76 76 77 77 77 77 77 77 76 76 76 76 76 76 76 76 75 76 77 78 78 78 79 78 77 76
77 77 78 79 80 79 79 78 79 79 78 78 78 77 77 78 74 73 70 71 70 71 74 74 75 77 77 75 75 75 75 75 75 75 75 75 76 77 77 77 77 77 77 77 76 76 77 78 76 76 76 75 75 76 77 78 77 77 79 78 76 77
77 76 77 78 79 77 77 78 79 78 78 78 77 78 78 75 70 70 69 70 70 71 73 73 75 77 76 75 74 75 75 75 75 75 75 75 75 75 76 76 76 76 76 76 76 78 76 73 76 75 75 75 76 78 78 78 77 78 78 79 77 77
77 76 76 77 78 77 77 77 78 78 78 77 78 78 76 70 70 69 70 69 70 70 75 73 74 74 74 74 74 75 74 74 74 74 75 74 75 77 76 77 77 75 75 77 76 76 74 74 75 76 76 75 76 77 78 78 78 76 78 77 76 77
75 76 76 76 76 78 77 75 75 76 76 77 78 78 77 71 70 72 72 71 72 72 73 73 72 72 74 73 72 73 74 73 73 73 75 73 74 74 75 76 78 78 77 78 78 75 75 74 75 76 76 76 77 77 77 78 79 78 78 76 76 77
74 75 75 76 77 77 76 76 75 75 76 76 76 77 78 71 69 72 72 72 71 72 74 73 71 71 71 71 71 71 71 72 70 70 72 72 73 74 75 74 74 78 79 80 78 76 75 75 75 77 77 79 78 78 77 77 79 78 77 75 76 77
74 74 74 75 76 76 75 76 75 75 75 76 76 76 76 77 74 73 74 73 74 74 73 73 71 70 70 71 71 70 70 70 70 70 71 71 71 73 71 71 72 78 79 74 74 73 75 76 75 76 77 76 77 77 76 77 79 79 77 75 76 76
74 74 74 75 75 75 75 75 74 74 74 76 75 74 75 76 77 76 75 76 75 73 73 72 70 69 68 69 69 69 69 69 69 69 70 70 70 69 69 69 72 77 73 72 72 70 76 76 75 75 77 77 77 77 78 75 79 79 78 76 75 76
73 73 73 74 74 73 73 73 74 74 75 75 74 75 76 76 77 76 74 75 75 74 72 72 71 70 69 69 69 69 69 69 69 70 69 68 70 69 68 69 72 75 69 69 70 72 74 71 74 76 77 77 74 73 74 76 79 80 78 76 75 75
73 73 73 73 73 73 73 73 74 75 75 73 73 75 76 75 76 76 76 75 75 74 74 73 72 70 69 69 69 70 71 69 68 68 68 68 69 69 69 69 70 70 70 69 70 71 71 72 71 73 77 76 73 71 72 73 76 81 79 76 76 75
73 73 73 72 73 72 72 73 74 74 74 74 73 74 75 76 75 74 76 76 74 74 74 73 73 72 71 70 71 72 68 67 67 68 69 69 69 69 69 69 70 72 70 71 69 70 71 73 73 75 76 75 73 70 72 73 75 81 77 76 75 75
73 73 72 72 72 72 72 73 73 73 73 74 73 74 75 74 75 75 75 77 76 75 73 72 72 72 72 72 72 72 71 69 69 70 71 70 70 70 70 69 70 71 71 70 70 68 70 73 75 74 73 73 71 72 72 76 77 80 78 76 76 76
73 72 72 72 72 72 71 72 73 73 73 73 73 73 74 75 75 76 75 75 76 75 74 73 72 71 72 72 72 72 73 72 71 72 73 70 68 69 69 69 72 72 69 69 68 69 69 68 73 74 73 73 71 71 72 73 74 77 78 77 75 76
73 72 72 72 72 72 72 72 72 72 73 72 73 73 73 73 74 74 75 74 75 75 75 74 72 71 71 71 71 71 72 73 74 74 73 73 73 72 72 73 72 70 68 68 70 68 68 67 67 72 71 72 72 74 74 72 75 76 79 76 74 75
73 72 72 72 72 73 72 72 72 74 72 72 72 73 73 73 74 74 74 73 74 74 75 75 75 73 70 71 70 70 72 72 73 73 74 73 73 72 73 73 71 69 66 67 69 68 68 68 68 67 70 70 72 73 73 74 74 76 79 78 74 73
72 72 73 72 72 73 72 71 72 72 71 72 72 72 73 73 73 74 74 74 73 73 74 74 74 75 73 72 72 71 71 72 72 72 72 72 72 72 72 72 70 69 69 67 66 67 67 68 68 68 68 68 70 73 73 74 74 75 79 77 77 77
72 73 73 72 72 71 72 71 71 72 72 71 71 72 73 73 73 73 72 72 73 72 73 74 74 74 72 73 73 72 71 71 72 72 71 71 70 73 73 70 69 69 69 69 69 67 67 68 68 67 68 68 68 71 72 73 74 75 74 78 77 78
72 72 72 72 72 72 71 71 71 71 70 71 71 72 72 73 73 73 72 72 73 72 72 73 73 73 72 73 73 73 72 72 71 70 70 70 71 71 71 71 70 70 70 70 69 69 68 67 67 68 68 68 68 69 70 72 73 73 74 75 78 79
71 72 72 72 72 71 71 69 68 69 69 69 71 71 72 73 72 72 71 72 72 71 72 72 72 72 72 71 71 72 72 73 72 71 69 69 70 69 69 68 69 69 68 69 71 66 68 69 67 66 65 66 67 67 68 69 71 73 73 74 74 77
72 71 71 70 70 69 68 67 68 67 66 69 69 70 70 70 71 70 71 71 71 70 71 71 72 72 71 72 71 72 72 72 72 71 70 70 70 71 70 69 69 70 69 69 69 68 69 69 66 65 65 65 65 66 68 69 70 72 73 72 73 73
72 71 71 70 69 69 69 68 67 67 67 69 68 69 68 70 70 71 70 71 70 71 71 70 71 72 71 71 70 71 71 71 71 71 71 72 71 70 71 68 67 67 69 68 68 69 68 69 64 64 63 62 63 65 67 67 69 72 72 72 72 72
71 71 70 70 70 69 69 69 68 68 68 68 70 70 69 70 70 69 69 70 70 70 71 71 71 72 72 72 70 70 70 71 71 72 70 70 70 70 68 68 67 66 67 69 69 72 69 68 65 65 64 62 60 60 63 65 68 69 72 70 71 71
71 71 70 71 71 71 70 70 71 69 69 69 68 69 69 69 68 68 67 69 69 69 70 70 71 72 72 71 71 70 70 70 70 71 70 69 69 70 71 69 68 68 68 65 68 68 71 69 68 65 60 61 62 61 60 62 65 67 70 70 70 70
71 71 71 71 71 71 70 69 69 69 70 69 69 67 66 65 66 67 67 66 66 69 70 69 70 71 72 71 71 70 70 70 69 70 71 70 69 70 71 72 69 68 68 66 67 68 69 68 67 70 66 61 59 58 61 61 62 63 68 68 69 69
72 72 71 71 71 70 69 67 66 64 63 63 63 63 61 61 63 64 64 66 68 69 69 69 70 71 73 72 70 71 70 70 69 69 69 69 70 70 70 70 71 69 67 67 66 67 66 67 68 68 68 67 66 62 60 61 62 59 66 68 69 70
72 71 72 71 72 70 69 68 67 65 65 64 62 63 63 64 64 65 67 66 67 68 69 69 69 70 70 71 71 71 70 70 70 69 70 69 69 69 71 72 72 70 68 68 67 65 66 66 66 66 68 68 68 67 67 64 60 61 58 63 66 66
72 72 72 72 71 70 68 68 67 66 65 65 64 63 64 64 66 66 65 66 66 66 68 69 68 69 70 71 72 70 70 69 69 69 70 69 69 70 70 71 71 70 69 67 67 65 65 67 65 65 67 66 65 66 66 67 66 62 60 59 61 66
73 72 71 72 71 71 70 69 67 66 64 66 66 65 66 66 65 66 64 65 65 66 67 68 69 69 69 71 71 70 69 69 68 68 69 69 69 70 69 69 68 68 67 67 67 67 66 65 64 64 63 63 64 64 65 66 66 64 61 59 60 61
71 71 71 71 71 71 70 69 68 66 65 65 65 65 65 64 64 65 64 64 65 65 66 67 68 69 69 71 71 70 69 69 68 69 69 68 69 69 69 69 69 68 67 66 67 66 65 66 66 66 65 65 63 64 63 63 63 63 63 63 60 61
72 72 72 71 72 71 70 70 68 68 66 65 66 65 63 63 63 64 63 64 64 65 66 67 67 68 69 70 70 70 69 68 69 69 69 68 68 68 69 69 69 69 68 66 66 66 66 67 66 66 65 64 64 65 64 63 63 63 63 62 61 61
71 72 71 71 71 70 70 70 69 68 67 66 67 65 64 63 64 63 63 63 64 65 66 66 67 67 67 69 69 69 70 69 68 68 68 68 68 69 70 70 69 68 68 68 69 67 66 66 66 66 66 66 65 65 64 64 63 63 62 63 63 62
70 71 71 71 70 70 70 70 69 68 67 67 66 66 65 64 64 63 63 63 64 64 65 65 65 66 67 68 68 68 68 67 67 68 68 69 69 69 69 68 68 68 68 68 68 68 66 66 66 65 65 66 66 65 65 65 64 63 64 65 64 62
71 71 71 71 71 70 70 70 69 69 68 67 66 66 65 65 64 64 64 64 64 64 64 64 65 65 67 68 68 68 69 68 69 69 69 69 69 69 69 69 68 68 68 69 69 68 67 67 67 67 67 66 66 65 64 65 64 64 65 64 63 62
71 71 71 70 70 70 70 70 70 70 69 67 68 67 65 65 65 65 64 64 65 65 64 65 65 66 68 67 68 68 68 68 68 68 68 68 69 68 68 68 68 68 68 69 68 68 67 67 68 68 68 67 67 66 65 65 65 65 66 66 65 64
71 71 71 71 70 70 70 70 70 69 69 69 68 68 67 67 66 66 66 65 65 65 65 66 66 67 67 67 67 68 68 68 69 69 69 68 68 68 68 67 67 67 67 70 68 68 68 68 68 68 67 66 66 66 66 66 65 64 65 67 66 66
72 71 71 71 70 70 70 70 69 70 70 68 68 67 66 66 66 67 66 66 65 66 66 66 66 67 67 68 68 68 68 68 68 68 68 69 69 68 68 67 67 66 66 68 67 67 68 67 68 68 67 65 64 65 66 66 65 64 66 67 66 66
MSLP
1017.11 1017.11 1017.27 1017.39 1017.55 1017.39 1017.31 1017.27 1017.27 1017.19 1017.11 1017.03 1016.99 1016.99 1016.87 1016.87 1016.79 1016.79 1016.75 1017.27 1017.43 1017.11 1016.99 1016.87 1016.87 1016.71 1016.79 1016.79 1016.83 1016.87 1016.87 1016.87 1016.91 1016.95 1017.03 1017.11 1017.15 1017.23 1017.27 1017.31 1017.35 1017.27 1017.19 1017.07 1016.95 1016.91 1016.87 1016.87 1016.87 1016.87 1016.95 1016.95 1016.95 1016.91 1016.71 1016.63 1016.79 1016.87 1017.07 1017.19 1017.35 1017.59
1017.19 1017.07 1016.99 1017.03 1016.99 1016.99 1017.03 1016.95 1016.99 1016.87 1016.95 1016.99 1016.99 1016.99 1016.95 1016.83 1016.71 1016.91 1017.07 1017.55 1017.67 1017.27 1017.15 1017.11 1016.91 1016.83 1016.79 1016.83 1016.83 1016.87 1016.95 1016.95 1016.91 1016.95 1017.03 1017.11 1017.15 1017.19 1017.27 1017.31 1017.31 1017.31 1017.19 1017.07 1016.99 1016.95 1016.87 1016.87 1016.87 1016.95 1016.99 1016.95 1016.95 1016.83 1016.67 1016.67 1016.87 1017.03 1017.19 1017.27 1017.47 1017.71
1017.43 1017.27 1017.07 1017.03 1016.91 1016.91 1016.87 1016.83 1016.75 1016.67 1016.71 1016.79 1016.79 1016.91 1016.95 1016.95 1017.31 1017.35 1017.63 1017.71 1017.75 1017.51 1017.31 1017.27 1017.11 1016.83 1016.75 1016.83 1016.83 1016.87 1016.95 1017.03 1016.95 1016.91 1017.03 1017.19 1017.19 1017.19 1017.23 1017.27 1017.27 1017.23 1017.19 1017.11 1017.07 1016.95 1016.79 1016.75 1016.83 1016.95 1016.99 1016.95 1016.91 1016.79 1016.71 1016.71 1016.87 1017.07 1017.19 1017.39 1017.59 1017.79
1017.63 1017.51 1017.31 1017.15 1017.03 1017.11 1017.03 1016.83 1016.67 1016.63 1016.67 1016.67 1016.63 1016.63 1016.71 1017.43 1018.23 1017.79 1017.43 1017.51 1017.51 1017.27 1017.43 1017.47 1017.23 1016.91 1016.87 1016.83 1016.91 1016.95 1016.91 1016.91 1016.95 1016.99 1017.07 1017.15 1017.15 1017.19 1017.23 1017.27 1017.23 1017.19 1017.19 1017.15 1017.03 1016.87 1016.79 1016.83 1016.83 1016.83 1016.87 1016.83 1016.75 1016.67 1016.75 1016.79 1016.91 1017.07 1017.15 1017.39 1017.63 1017.83
1017.59 1017.59 1017.51 1017.35 1017.23 1017.15 1017.03 1016.99 1016.83 1016.71 1016.67 1016.63 1016.63 1016.59 1016.87 1017.99 1017.95 1017.75 1017.47 1017.35 1017.27 1017.31 1017.31 1017.35 1017.23 1017.07 1016.99 1016.95 1016.99 1016.99 1016.95 1016.91 1016.91 1017.03 1017.07 1017.27 1017.23 1017.11 1017.15 1017.23 1017.19 1017.19 1017.15 1017.07 1016.95 1016.75 1016.75 1016.87 1016.83 1016.75 1016.79 1016.75 1016.71 1016.67 1016.71 1016.71 1016.83 1017.07 1017.19 1017.35 1017.63 1017.83
1017.75 1017.67 1017.59 1017.43 1017.31 1017.03 1017.03 1017.27 1017.27 1017.03 1016.87 1016.63 1016.67 1016.67 1016.87 1017.59 1017.55 1017.63 1017.67 1017.63 1017.43 1017.51 1017.43 1017.39 1017.31 1017.15 1017.03 1016.99 1016.99 1016.91 1016.91 1016.95 1016.91 1016.99 1017.07 1017.23 1017.19 1017.07 1017.19 1017.19 1017.03 1016.99 1016.95 1016.79 1016.67 1016.67 1016.67 1016.71 1016.83 1016.71 1016.67 1016.59 1016.55 1016.63 1016.67 1016.67 1016.71 1016.95 1017.19 1017.43 1017.67 1017.87
1017.95 1017.79 1017.67 1017.39 1017.23 1017.11 1017.31 1017.23 1017.27 1017.19 1017.07 1016.99 1016.87 1016.79 1016.83 1017.31 1017.35 1017.43 1017.39 1017.47 1017.51 1017.43 1017.27 1017.27 1017.35 1017.23 1016.99 1017.07 1017.07 1016.75 1016.79 1016.91 1016.95 1017.15 1017.23 1017.43 1017.39 1017.19 1017.19 1017.15 1017.19 1016.91 1016.55 1016.55 1016.59 1016.55 1016.63 1016.63 1016.59 1016.59 1016.51 1016.35 1016.27 1016.43 1016.51 1016.59 1016.67 1016.91 1017.11 1017.43 1017.67 1017.83
1017.99 1017.87 1017.79 1017.51 1017.39 1017.47 1017.43 1017.35 1017.39 1017.31 1017.19 1017.11 1016.95 1016.91 1016.95 1016.91 1016.95 1017.23 1017.23 1017.19 1017.19 1017.19 1017.19 1017.19 1017.23 1017.23 1017.07 1016.91 1016.91 1016.83 1016.79 1016.83 1016.95 1017.11 1017.19 1017.35 1017.67 1017.75 1017.71 1017.67 1017.67 1016.83 1016.43 1016.55 1017.19 1016.95 1016.63 1016.63 1016.59 1016.35 1016.35 1016.27 1016.23 1016.27 1016.35 1016.39 1016.43 1016.67 1017.03 1017.35 1017.59 1017.87
1018.07 1017.95 1017.87 1017.67 1017.67 1017.67 1017.59 1017.47 1017.43 1017.39 1017.31 1017.11 1017.15 1017.19 1017.03 1016.83 1016.83 1016.95 1016.99 1016.99 1017.03 1017.19 1017.11 1017.11 1017.19 1017.27 1017.23 1017.31 1017.15 1017.03 1016.95 1017.03 1017.03 1017.07 1017.23 1017.43 1017.71 1017.95 1017.83 1017.75 1017.31 1016.71 1016.71 1016.83 1017.23 1017.83 1016.75 1016.47 1016.43 1016.31 1016.19 1016.23 1016.23 1016.27 1016.35 1016.39 1016.39 1016.43 1016.87 1017.27 1017.51 1017.83
1018.15 1018.07 1017.95 1017.83 1017.83 1017.83 1017.75 1017.67 1017.51 1017.35 1017.19 1017.27 1017.27 1017.07 1016.91 1016.83 1016.75 1016.75 1016.99 1017.03 1016.99 1017.03 1017.11 1017.07 1017.07 1017.07 1017.11 1017.07 1017.03 1016.95 1016.99 1017.07 1017.27 1017.27 1017.39 1017.63 1017.55 1017.75 1017.87 1017.91 1017.51 1017.19 1017.63 1017.15 1016.87 1017.07 1016.83 1016.75 1016.39 1016.19 1016.11 1016.27 1016.31 1016.39 1016.39 1016.35 1016.31 1016.39 1016.75 1017.15 1017.47 1017.79
1018.11 1018.07 1018.03 1018.07 1017.95 1017.99 1017.83 1017.71 1017.51 1017.27 1017.19 1017.35 1017.27 1017.07 1016.87 1016.91 1016.83 1016.79 1016.83 1016.83 1016.91 1016.91 1016.91 1016.99 1016.99 1016.99 1016.99 1016.99 1016.99 1016.91 1016.87 1016.91 1017.03 1016.99 1016.87 1016.95 1016.95 1017.03 1017.75 1018.39 1018.23 1017.75 1017.75 1017.91 1017.15 1017.07 1016.99 1016.79 1016.43 1016.39 1016.15 1016.27 1016.39 1016.43 1016.47 1016.27 1016.19 1016.31 1016.67 1017.07 1017.43 1017.79
1018.15 1018.15 1018.15 1018.19 1018.07 1018.07 1018.03 1017.79 1017.55 1017.39 1017.31 1017.27 1017.15 1017.03 1016.91 1016.91 1017.03 1017.03 1016.79 1016.75 1016.83 1016.83 1016.87 1016.91 1016.95 1016.91 1016.95 1016.99 1017.03 1016.95 1016.95 1017.15 1017.31 1017.11 1017.07 1017.03 1017.07 1017.11 1017.75 1018.27 1018.15 1017.43 1017.23 1017.27 1018.11 1017.43 1016.91 1016.87 1016.63 1016.35 1016.27 1016.39 1016.43 1016.47 1016.59 1016.51 1016.35 1016.35 1016.67 1016.99 1017.39 1017.71
1018.15 1018.23 1018.27 1018.23 1018.19 1018.15 1018.07 1017.87 1017.71 1017.59 1017.47 1017.39 1017.23 1017.03 1016.99 1017.07 1016.99 1016.95 1016.83 1016.71 1016.75 1016.83 1016.91 1016.99 1016.95 1016.99 1016.95 1016.99 1017.03 1017.03 1016.95 1016.83 1016.87 1016.83 1016.91 1017.07 1017.35 1017.55 1017.67 1017.39 1017.11 1016.83 1017.07 1017.51 1017.79 1017.35 1017.39 1016.99 1016.59 1016.47 1016.47 1016.63 1016.67 1016.75 1016.79 1016.67 1016.47 1016.27 1016.59 1017.03 1017.35 1017.59
1018.19 1018.31 1018.27 1018.19 1018.15 1018.19 1018.19 1018.03 1017.83 1017.75 1017.63 1017.51 1017.35 1017.19 1017.11 1017.03 1016.95 1016.91 1016.87 1016.79 1016.75 1016.83 1016.87 1016.87 1016.99 1017.03 1016.99 1017.07 1016.99 1016.95 1016.95 1016.95 1016.87 1016.87 1016.91 1017.31 1017.99 1017.83 1017.83 1017.79 1016.95 1016.91 1017.95 1017.79 1017.59 1018.07 1018.43 1018.43 1017.23 1016.79 1016.75 1016.79 1016.79 1016.87 1016.91 1016.99 1016.71 1016.47 1016.39 1016.87 1017.19 1017.55
1018.23 1018.27 1018.23 1018.19 1018.11 1018.15 1018.15 1018.07 1017.95 1017.87 1017.79 1017.71 1017.43 1017.35 1017.27 1017.15 1017.11 1017.03 1016.95 1016.91 1016.87 1016.91 1016.87 1016.83 1016.87 1016.99 1017.07 1017.15 1017.19 1017.11 1016.99 1016.83 1016.67 1016.67 1016.71 1016.67 1016.83 1017.07 1016.83 1016.67 1016.79 1016.99 1017.19 1017.67 1017.27 1017.95 1018.03 1018.23 1018.35 1017.51 1017.23 1017.11 1017.19 1017.03 1016.95 1016.95 1016.63 1016.71 1016.67 1016.87 1017.19 1017.63
1018.27 1018.27 1018.27 1018.15 1018.11 1018.03 1018.07 1018.03 1017.95 1017.91 1017.87 1017.83 1017.59 1017.39 1017.35 1017.31 1017.19 1017.11 1017.07 1017.07 1017.03 1017.11 1017.03 1016.91 1016.79 1016.83 1017.11 1017.11 1017.15 1017.23 1017.03 1016.79 1016.75 1016.71 1016.63 1016.55 1016.63 1016.83 1016.71 1016.59 1016.59 1016.83 1017.35 1017.43 1017.51 1017.71 1017.67 1017.75 1017.75 1017.83 1017.59 1017.63 1017.55 1017.35 1017.19 1017.07 1017.03 1016.91 1016.67 1016.75 1017.31 1017.67
1018.39 1018.35 1018.27 1018.19 1018.07 1018.03 1018.03 1018.07 1018.03 1017.99 1018.03 1017.83 1017.75 1017.51 1017.27 1017.31 1017.19 1017.15 1017.11 1017.19 1017.19 1017.11 1017.11 1017.03 1016.95 1016.87 1016.99 1017.07 1017.03 1017.07 1016.99 1016.91 1016.75 1016.87 1016.83 1016.79 1016.75 1016.59 1016.63 1016.71 1016.67 1016.75 1017.23 1017.75 1017.79 1017.95 1018.11 1017.99 1018.03 1018.27 1017.71 1017.87 1018.03 1017.59 1017.43 1017.27 1017.11 1016.99 1016.95 1016.91 1017.11 1017.43
1018.39 1018.23 1018.19 1018.19 1018.19 1018.11 1018.11 1018.15 1018.11 1018.03 1018.07 1017.95 1017.87 1017.55 1017.35 1017.31 1017.39 1017.31 1017.31 1017.35 1017.23 1017.19 1017.19 1017.11 1016.99 1016.99 1017.03 1016.95 1016.91 1016.99 1016.95 1016.91 1016.83 1016.83 1016.87 1016.87 1016.99 1016.55 1016.47 1016.75 1016.95 1016.83 1016.99 1017.31 1017.67 1017.71 1017.87 1017.91 1018.07 1018.35 1018.35 1017.83 1017.91 1017.91 1017.63 1017.39 1017.15 1017.07 1017.19 1017.27 1017.03 1017.15
1018.51 1018.39 1018.31 1018.23 1018.23 1018.19 1018.23 1018.27 1018.19 1018.15 1018.23 1018.07 1017.91 1017.67 1017.55 1017.47 1017.39 1017.39 1017.39 1017.39 1017.39 1017.35 1017.27 1017.15 1017.11 1017.07 1017.03 1016.95 1016.95 1016.91 1016.91 1016.87 1016.79 1016.83 1016.87 1016.99 1016.87 1016.95 1016.95 1016.79 1016.95 1016.95 1016.87 1017.03 1017.35 1017.55 1017.99 1018.23 1018.03 1018.11 1018.59 1018.39 1017.99 1017.99 1017.75 1017.55 1017.35 1017.35 1017.31 1017.23 1017.23 1016.95
1018.55 1018.51 1018.43 1018.39 1018.43 1018.51 1018.51 1018.63 1018.67 1018.43 1018.43 1018.31 1018.03 1017.95 1017.71 1017.63 1017.55 1017.63 1017.75 1017.67 1017.59 1017.55 1017.47 1017.35 1017.23 1017.15 1017.07 1016.99 1016.99 1016.91 1016.87 1016.79 1016.75 1016.83 1017.07 1017.15 1017.07 1017.23 1017.15 1017.23 1017.19 1017.07 1017.07 1016.99 1016.99 1017.75 1017.79 1017.87 1018.07 1018.43 1018.83 1018.79 1018.55 1018.07 1017.83 1017.79 1017.67 1017.51 1017.43 1017.39 1017.39 1017.15
1018.55 1018.59 1018.71 1018.75 1018.79 1018.83 1018.99 1018.95 1018.79 1018.83 1018.75 1018.31 1018.27 1018.11 1018.07 1017.91 1017.95 1017.95 1017.99 1017.95 1017.83 1017.67 1017.59 1017.47 1017.27 1017.15 1017.11 1017.03 1016.99 1016.91 1016.87 1016.79 1016.75 1016.83 1016.95 1017.07 1016.99 1016.87 1016.91 1017.03 1017.03 1016.87 1016.95 1017.15 1017.23 1017.35 1017.59 1017.55 1018.15 1018.87 1018.71 1018.35 1018.47 1018.27 1018.15 1018.03 1017.99 1017.75 1017.63 1017.51 1017.39 1017.47
1018.55 1018.63 1018.79 1018.83 1018.83 1018.87 1018.87 1018.99 1018.95 1018.95 1018.75 1018.51 1018.51 1018.31 1018.39 1018.19 1018.15 1018.11 1018.11 1018.07 1017.99 1017.87 1017.79 1017.71 1017.47 1017.23 1017.11 1016.99 1016.99 1016.91 1016.87 1016.83 1016.75 1016.75 1016.75 1016.75 1016.87 1016.91 1016.79 1016.99 1017.27 1017.23 1016.87 1017.15 1017.31 1017.19 1017.67 1017.51 1018.35 1018.63 1019.07 1019.07 1018.51 1018.31 1018.35 1018.23 1018.03 1017.83 1017.63 1017.59 1017.59 1017.59
1018.63 1018.63 1018.83 1018.83 1018.79 1018.91 1018.79 1018.75 1018.75 1018.75 1018.59 1018.59 1018.31 1018.31 1018.47 1018.39 1018.27 1018.39 1018.31 1018.23 1018.19 1018.07 1017.99 1017.91 1017.75 1017.51 1017.31 1017.11 1017.11 1017.03 1016.95 1016.79 1016.71 1016.63 1016.75 1016.79 1016.75 1016.83 1016.99 1017.07 1017.11 1017.23 1017.15 1016.83 1016.95 1016.71 1017.19 1017.39 1018.23 1018.35 1018.55 1018.91 1019.27 1019.11 1018.43 1018.27 1017.95 1017.99 1017.83 1017.71 1017.71 1017.87
1018.71 1018.67 1018.79 1018.79 1018.75 1018.67 1018.67 1018.63 1018.51 1018.55 1018.43 1018.43 1018.63 1018.51 1018.59 1018.55 1018.59 1018.59 1018.63 1018.47 1018.39 1018.35 1018.23 1018.11 1017.87 1017.71 1017.55 1017.35 1017.19 1017.15 1017.03 1016.99 1016.95 1016.75 1016.75 1016.83 1016.79 1016.75 1016.67 1016.75 1016.95 1016.99 1016.99 1017.47 1017.07 1016.95 1016.63 1017.15 1017.55 1018.07 1019.31 1019.07 1019.19 1019.27 1019.75 1019.31 1018.87 1018.31 1017.99 1017.83 1017.83 1017.87
1018.67 1018.67 1018.71 1018.71 1018.67 1018.59 1018.63 1018.75 1018.59 1018.55 1018.43 1018.43 1018.47 1018.63 1018.83 1018.99 1018.95 1018.87 1018.79 1018.71 1018.63 1018.43 1018.31 1018.23 1018.07 1017.83 1017.63 1017.43 1017.23 1017.15 1017.15 1017.19 1017.15 1016.99 1016.87 1016.87 1016.87 1016.83 1016.59 1016.47 1016.71 1016.91 1016.87 1017.15 1017.19 1016.79 1016.71 1017.07 1017.39 1017.11 1017.83 1018.83 1019.59 1019.83 1019.27 1019.07 1018.91 1018.67 1017.87 1017.99 1017.71 1017.67
1018.55 1018.55 1018.67 1018.63 1018.59 1018.59 1018.67 1018.87 1018.91 1019.03 1019.07 1018.95 1019.03 1019.07 1019.35 1019.39 1019.19 1019.07 1018.95 1018.75 1018.63 1018.51 1018.43 1018.31 1018.11 1017.83 1017.63 1017.51 1017.35 1017.15 1017.19 1017.27 1017.23 1017.11 1017.07 1016.99 1016.91 1016.75 1016.59 1016.43 1016.23 1016.55 1016.71 1016.83 1017.15 1016.99 1017.15 1017.03 1016.99 1017.15 1017.39 1017.55 1017.83 1018.43 1018.91 1019.03 1019.11 1019.43 1018.23 1017.75 1017.51 1017.31
1018.43 1018.55 1018.55 1018.59 1018.55 1018.59 1018.67 1018.79 1018.87 1019.03 1018.99 1018.95 1019.11 1019.15 1019.15 1019.07 1019.07 1018.87 1018.67 1018.71 1018.63 1018.43 1018.31 1018.23 1018.07 1017.87 1017.67 1017.47 1017.23 1017.15 1017.23 1017.27 1017.23 1017.19 1017.03 1017.03 1016.99 1016.87 1016.59 1016.31 1016.11 1016.31 1016.67 1016.67 1016.91 1017.23 1017.07 1017.11 1017.19 1017.23 1017.35 1017.43 1017.55 1017.71 1017.75 1018.43 1019.19 1018.83 1019.15 1018.23 1017.83 1017.75
1018.39 1018.39 1018.47 1018.51 1018.51 1018.59 1018.75 1018.75 1018.87 1018.99 1018.91 1018.83 1018.99 1019.11 1019.03 1019.03 1018.87 1018.75 1018.75 1018.63 1018.47 1018.35 1018.19 1018.03 1017.95 1017.83 1017.63 1017.43 1017.19 1017.19 1017.23 1017.31 1017.35 1017.27 1017.15 1017.07 1016.99 1016.79 1016.63 1016.35 1016.23 1016.31 1016.43 1016.59 1016.75 1017.15 1017.23 1017.07 1017.35 1017.43 1017.39 1017.63 1017.71 1017.87 1017.91 1017.91 1017.95 1018.39 1018.67 1019.07 1018.55 1017.71
1018.35 1018.39 1018.47 1018.47 1018.51 1018.51 1018.55 1018.63 1018.75 1018.87 1018.99 1018.67 1018.75 1018.87 1018.83 1018.79 1018.87 1018.75 1018.79 1018.55 1018.43 1018.27 1018.07 1017.91 1017.79 1017.75 1017.55 1017.31 1017.11 1017.19 1017.31 1017.35 1017.35 1017.31 1017.19 1017.07 1016.87 1016.71 1016.63 1016.55 1016.47 1016.47 1016.63 1016.71 1016.59 1016.63 1016.91 1017.03 1017.23 1017.23 1017.43 1017.67 1017.59 1017.75 1017.75 1017.79 1017.83 1017.99 1018.51 1018.83 1018.59 1018.35
1018.47 1018.35 1018.31 1018.39 1018.43 1018.47 1018.47 1018.51 1018.67 1018.83 1018.91 1018.79 1018.71 1018.75 1018.83 1018.91 1018.87 1018.79 1018.83 1018.63 1018.39 1018.27 1018.11 1017.95 1017.71 1017.59 1017.43 1017.23 1017.07 1017.11 1017.27 1017.35 1017.35 1017.23 1017.11 1017.03 1016.91 1016.67 1016.51 1016.43 1016.39 1016.43 1016.43 1016.59 1016.43 1016.43 1016.63 1016.75 1016.79 1016.71 1016.83 1017.23 1017.59 1017.71 1017.91 1017.99 1018.03 1018.07 1018.07 1017.87 1018.27 1018.15
1018.35 1018.15 1018.15 1018.31 1018.35 1018.47 1018.43 1018.43 1018.63 1018.71 1018.87 1018.83 1018.67 1018.79 1018.95 1019.03 1018.95 1018.83 1018.83 1018.67 1018.47 1018.31 1018.11 1017.99 1017.71 1017.55 1017.35 1017.15 1017.03 1017.03 1017.15 1017.23 1017.19 1017.11 1017.03 1016.99 1016.87 1016.67 1016.47 1016.35 1016.23 1016.23 1016.27 1016.35 1016.43 1016.43 1016.43 1016.39 1016.55 1016.63 1016.79 1017.07 1017.27 1017.23 1017.43 1017.71 1017.87 1017.91 1018.03 1018.23 1018.35 1018.23
1018.27 1018.19 1018.15 1018.23 1018.31 1018.39 1018.35 1018.43 1018.51 1018.59 1018.71 1018.67 1018.55 1018.67 1018.83 1019.03 1018.91 1018.91 1018.79 1018.67 1018.35 1018.23 1018.15 1017.95 1017.83 1017.75 1017.51 1017.27 1017.07 1016.99 1016.95 1017.07 1017.11 1017.03 1016.95 1016.79 1016.71 1016.51 1016.35 1016.23 1016.15 1016.15 1016.15 1016.07 1016.07 1016.19 1016.23 1016.23 1016.23 1016.31 1016.43 1016.51 1016.79 1016.95 1017.15 1017.31 1017.39 1017.55 1017.91 1017.79 1017.71 1017.83
1018.23 1018.11 1018.15 1018.11 1018.27 1018.27 1018.35 1018.43 1018.55 1018.55 1018.63 1018.55 1018.67 1018.63 1018.75 1018.91 1018.87 1018.95 1018.83 1018.71 1018.51 1018.43 1018.27 1018.19 1018.03 1017.95 1017.75 1017.43 1017.23 1017.07 1016.99 1016.99 1016.95 1016.83 1016.71 1016.67 1016.59 1016.47 1016.31 1016.23 1016.19 1016.15 1016.11 1016.03 1015.91 1015.91 1016.19 1016.15 1015.99 1016.11 1016.15 1016.11 1016.39 1016.67 1016.87 1016.91 1017.03 1017.31 1017.31 1017.51 1017.51 1017.91
1017.99 1017.91 1017.99 1018.07 1018.15 1018.23 1018.31 1018.35 1018.43 1018.51 1018.51 1018.47 1018.55 1018.51 1018.59 1018.75 1018.79 1018.83 1018.75 1018.63 1018.55 1018.43 1018.39 1018.31 1018.11 1017.99 1017.75 1017.51 1017.31 1017.15 1016.99 1016.83 1016.71 1016.63 1016.63 1016.63 1016.55 1016.43 1016.27 1016.19 1016.19 1016.19 1016.07 1015.83 1015.71 1015.83 1015.87 1015.79 1015.87 1015.79 1015.67 1015.99 1016.19 1016.27 1016.39 1016.59 1016.95 1017.23 1017.03 1017.15 1017.63 1017.59
1017.83 1017.83 1017.87 1017.99 1018.07 1018.19 1018.23 1018.23 1018.27 1018.35 1018.43 1018.43 1018.35 1018.31 1018.35 1018.43 1018.55 1018.63 1018.59 1018.55 1018.43 1018.31 1018.31 1018.19 1018.07 1017.83 1017.67 1017.59 1017.35 1017.15 1017.03 1016.87 1016.75 1016.63 1016.59 1016.55 1016.47 1016.39 1016.31 1016.23 1016.23 1016.15 1015.95 1015.75 1015.67 1015.59 1015.63 1015.67 1015.55 1015.43 1015.47 1015.63 1015.79 1015.91 1016.03 1016.11 1016.35 1016.55 1016.35 1016.31 1016.63 1016.83
1017.55 1017.63 1017.71 1017.83 1017.95 1017.99 1018.11 1018.11 1018.15 1018.39 1018.31 1018.31 1018.23 1018.15 1018.15 1018.23 1018.31 1018.35 1018.43 1018.47 1018.39 1018.27 1018.15 1018.03 1017.95 1017.83 1017.71 1017.55 1017.39 1017.23 1017.03 1016.87 1016.67 1016.55 1016.47 1016.43 1016.35 1016.31 1016.27 1016.31 1016.27 1016.15 1016.07 1015.71 1015.67 1015.55 1015.39 1015.27 1015.31 1015.27 1015.31 1015.43 1015.71 1015.71 1015.63 1015.71 1015.79 1015.91 1016.03 1015.95 1015.99 1016.11
1017.27 1017.31 1017.43 1017.59 1017.71 1017.83 1017.95 1018.07 1018.15 1018.19 1018.23 1018.27 1018.19 1018.11 1018.19 1018.19 1018.27 1018.27 1018.31 1018.31 1018.27 1018.19 1018.11 1018.07 1018.03 1017.83 1017.63 1017.43 1017.27 1017.11 1017.03 1016.87 1016.75 1016.59 1016.47 1016.31 1016.23 1016.23 1016.23 1016.23 1016.27 1016.23 1016.15 1015.87 1015.79 1015.67 1015.39 1015.27 1015.15 1015.11 1015.19 1015.35 1015.63 1015.71 1015.39 1015.35 1015.43 1015.67 1015.79 1015.79 1015.79 1015.83
Wind_Speed
2 3 4 4 4 2 4 6 5 6 4 0 2 2 3 1 3 3 3 4 4 4 2 1 2 1 4 3 3 1 3 2 1 2 1 3 3 4 6 6 7 8 8 8 7 6 5 5 6 6 4 4 3 3 3 1 1 3 4 5 7 7
4 5 2 1 1 2 1 2 1 2 3 4 5 2 3 1 4 2 2 5 4 4 3 2 3 2 2 2 3 2 1 0 1 1 3 4 5 5 6 8 8 9 10 9 8 4 4 6 7 5 4 3 2 3 1 1 1 2 4 5 5 9
5 5 4 2 2 4 2 1 2 1 1 2 2 1 0 1 8 4 5 5 5 5 6 2 3 3 1 2 1 1 1 2 3 2 3 5 6 7 8 9 10 10 10 11 6 5 3 2 3 5 3 3 3 2 1 2 1 1 5 6 6 13
4 4 4 2 2 3 2 5 1 1 2 2 2 2 3 6 9 6 2 2 3 2 5 2 5 4 2 1 1 1 3 4 4 3 4 5 7 8 10 10 11 11 9 6 5 5 4 0 2 3 3 3 3 2 0 1 1 1 6 8 8 15
3 3 4 4 3 2 2 4 5 2 2 1 3 2 4 9 6 6 2 2 3 2 4 2 2 3 1 0 2 2 1 0 0 1 3 4 3 4 5 6 6 8 6 7 6 4 2 2 2 2 3 2 2 2 1 0 1 3 4 6 8 14
4 4 4 3 2 3 4 3 4 5 5 1 4 2 4 5 1 2 4 2 2 4 3 2 1 1 2 2 0 1 2 3 3 1 1 2 3 4 3 6 6 7 7 6 6 3 2 2 3 2 2 3 3 2 1 1 2 6 5 6 9 15
4 4 4 4 3 4 4 3 3 4 5 4 4 4 3 7 3 3 2 3 3 4 4 2 2 2 2 2 2 2 1 1 1 2 1 3 5 4 5 6 5 8 7 5 2 3 4 3 3 4 3 4 3 3 2 2 2 7 7 7 9 16
4 4 4 4 4 4 3 3 4 4 4 5 5 4 4 1 4 1 2 2 2 2 3 0 1 1 2 2 3 2 3 2 2 3 2 1 4 5 7 6 8 10 7 1 4 3 2 5 4 4 3 2 1 1 2 2 2 8 7 7 8 13
5 5 4 4 4 4 4 3 3 3 2 5 5 4 4 4 2 2 1 1 1 1 2 1 1 1 1 3 2 2 2 0 2 4 3 4 3 4 8 7 9 10 2 3 3 6 6 3 2 2 3 4 2 0 1 1 3 10 8 7 7 10
6 5 4 4 3 4 4 3 2 2 2 4 3 3 3 2 1 2 2 1 2 1 2 2 2 2 3 2 1 1 2 1 0 2 2 4 1 4 6 8 11 7 7 1 5 5 2 1 3 3 1 1 2 1 0 3 4 7 8 7 7 8
6 6 4 5 4 4 4 3 3 3 3 3 3 5 2 4 4 4 2 1 2 3 3 2 2 2 3 2 2 2 1 2 1 1 4 5 3 3 4 8 9 2 2 4 4 5 3 3 1 1 2 2 1 2 0 3 4 7 8 7 7 7
6 5 5 5 4 5 5 4 5 4 3 3 5 2 3 2 2 4 3 1 1 1 1 3 3 3 2 1 1 0 2 2 3 3 3 5 4 4 6 6 10 7 5 6 3 6 5 2 4 3 1 1 1 1 2 4 4 5 8 7 7 6
4 5 5 5 5 5 5 5 5 4 4 5 5 4 2 4 2 2 3 2 1 2 1 2 3 3 4 2 1 2 2 4 4 4 3 3 4 6 7 8 9 5 4 2 6 5 7 7 2 2 2 2 1 1 1 4 5 5 10 7 7 6
4 5 5 4 4 4 4 3 4 4 4 4 5 4 3 2 2 2 2 3 2 2 1 1 2 4 4 4 3 2 3 2 5 5 4 5 5 8 8 6 7 4 5 4 3 2 2 6 4 3 2 2 1 1 1 3 5 2 8 8 6 7
4 4 4 4 4 4 3 3 3 3 3 5 5 5 4 4 4 4 4 4 4 5 5 2 0 2 2 3 5 5 3 4 2 3 4 4 4 5 4 3 1 4 6 6 3 3 3 3 6 5 4 4 2 1 2 2 4 3 4 7 5 2
4 4 4 4 3 3 3 3 3 4 4 4 5 2 2 3 2 2 2 3 5 4 5 6 2 1 2 2 3 4 5 4 4 4 5 3 0 3 3 3 3 3 3 5 5 5 5 3 3 3 7 6 4 3 2 3 4 4 2 8 7 3
4 4 3 4 4 4 3 4 3 3 4 3 3 4 1 3 4 3 3 4 5 4 5 6 6 4 2 2 2 2 4 6 4 4 6 4 3 2 3 2 1 2 4 2 2 2 1 0 1 3 3 4 7 5 2 3 4 3 6 2 8 10
3 3 3 3 4 4 4 5 3 2 3 3 4 5 2 1 3 3 3 4 5 5 5 6 5 5 5 4 3 2 2 4 4 4 4 4 6 4 2 1 3 1 3 4 4 5 2 3 3 3 2 0 4 5 4 4 4 5 4 3 5 6
4 4 3 3 4 4 4 4 4 4 4 3 3 4 3 4 2 2 3 5 6 6 6 6 6 6 5 5 4 4 3 3 3 4 4 4 5 5 5 2 2 1 0 2 4 2 6 7 4 3 4 5 4 4 4 4 5 4 5 4 4 5
3 3 4 3 3 4 4 4 5 3 3 3 2 3 4 3 4 5 7 6 5 5 7 6 6 5 5 5 5 4 5 4 3 4 4 4 4 3 2 6 5 1 1 2 1 2 4 3 3 6 3 3 2 5 4 5 5 4 3 4 5 3
3 3 3 3 3 4 4 4 3 5 5 2 3 3 5 4 5 5 6 6 6 5 5 6 6 5 5 5 5 5 5 4 4 3 4 5 5 3 3 5 4 2 2 3 1 5 3 3 5 5 5 4 3 2 4 5 6 5 3 2 4 5
2 4 2 3 3 3 3 4 4 4 4 4 4 3 3 3 3 4 3 4 4 4 6 7 7 7 5 5 4 4 4 5 5 4 3 4 3 4 4 0 5 5 2 3 3 4 5 4 2 4 4 1 4 3 3 5 5 6 3 2 3 5
2 3 3 2 3 2 2 3 3 4 3 2 2 4 6 6 5 5 4 5 7 7 6 5 7 8 7 5 6 6 4 4 5 5 5 5 4 3 4 4 5 5 3 3 2 1 4 1 2 3 4 3 1 1 3 3 3 6 5 2 1 3
2 2 3 2 2 2 3 3 2 4 4 3 3 4 4 4 5 7 7 6 5 6 7 7 7 7 7 6 5 5 5 5 6 6 6 6 6 6 3 2 3 5 5 4 4 3 3 6 4 7 4 2 3 2 1 3 3 3 4 3 1 1
3 2 2 2 2 2 3 3 3 3 3 2 3 3 3 4 4 4 4 5 5 7 7 7 7 7 7 7 5 4 4 5 6 6 6 6 5 6 7 4 4 6 5 5 5 2 2 3 6 3 2 4 3 2 2 2 1 3 3 3 4 3
3 2 2 2 2 2 2 3 3 5 5 4 4 5 5 5 5 4 3 3 4 4 6 7 7 6 6 6 6 4 3 4 5 5 5 6 6 6 7 7 3 2 4 5 6 2 2 3 3 2 0 2 2 1 4 3 2 3 2 5 2 3
2 4 3 2 2 2 2 2 3 4 5 4 4 4 4 4 4 5 3 3 3 4 5 5 5 6 6 7 6 2 4 4 5 6 5 5 5 6 7 7 5 2 4 1 2 5 4 3 2 3 4 4 1 1 1 3 3 1 1 2 3 3
2 2 3 1 2 2 2 2 3 3 4 3 4 4 3 3 3 4 5 4 3 4 4 4 4 5 6 6 6 2 3 4 4 5 6 5 6 6 6 7 6 3 3 3 2 5 6 3 4 2 2 4 4 5 4 3 1 2 1 1 2 3
2 3 4 2 1 2 2 2 2 3 5 3 4 3 3 3 4 4 5 4 5 5 4 2 3 4 5 6 5 2 3 4 5 5 6 6 5 6 6 6 5 4 3 3 1 2 3 3 3 4 3 3 5 6 5 5 5 4 4 3 3 3
3 3 4 3 2 2 2 1 2 3 4 5 4 3 3 4 3 4 5 6 4 5 5 5 4 3 4 6 3 2 2 4 4 5 5 5 6 6 5 4 5 3 3 4 2 3 4 4 3 2 4 4 4 4 4 4 5 6 5 3 3 2
4 2 4 3 2 2 2 1 2 3 5 6 5 4 4 4 5 4 5 5 5 4 4 5 4 4 4 5 3 2 2 3 5 5 5 5 5 5 4 5 5 4 3 3 4 3 4 4 3 3 5 3 6 6 5 4 4 6 5 2 3 4
5 3 3 3 2 2 1 1 3 2 3 5 4 4 3 3 4 5 5 5 4 4 4 5 4 5 5 6 4 2 1 2 4 5 5 5 6 6 5 5 4 5 5 4 3 3 4 5 3 3 4 5 4 2 5 3 1 1 5 5 4 3
5 4 3 3 3 2 1 2 2 2 3 4 5 6 5 5 5 5 5 6 6 5 5 6 5 6 6 7 6 4 2 2 3 3 4 5 6 7 6 4 5 5 5 5 4 3 4 6 5 5 4 4 6 6 5 1 3 5 5 3 3 4
5 5 4 3 2 2 1 1 2 2 2 3 3 2 2 1 3 3 5 5 5 5 5 5 6 5 5 6 5 5 6 4 4 4 4 6 6 7 8 6 6 6 7 6 4 5 5 6 5 6 4 4 5 5 5 6 4 5 6 5 5 6
5 4 5 4 3 2 2 2 2 1 1 4 2 2 1 0 1 2 4 5 5 5 5 5 5 5 6 6 6 5 6 5 4 3 3 3 4 5 5 6 5 6 6 5 5 5 4 5 6 6 5 5 5 5 6 5 6 6 7 7 7 7
6 5 5 4 3 3 2 2 2 1 1 3 2 3 1 1 1 1 3 4 5 5 5 5 5 4 5 5 5 5 5 5 5 4 3 3 4 4 4 5 5 6 7 6 7 7 7 5 5 4 3 2 5 6 5 6 7 6 6 6 6 6
5 5 5 6 5 3 2 2 2 1 1 3 3 5 2 3 3 2 3 3 4 4 5 5 6 5 5 5 5 5 4 5 5 5 5 4 3 3 4 4 5 6 7 6 6 7 7 7 6 3 2 5 6 6 5 6 6 6 7 7 6 6
Wind_Direction
83 100 143 156 165 161 167 177 187 192 211 256 14 344 359 334 95 51 320 24 340 293 286 302 219 185 159 200 194 161 151 86 32 359 284 278 249 260 251 252 250 250 254 257 260 264 256 230 223 221 223 241 273 272 257 334 18 95 107 119 115 125
16 359 44 53 121 88 103 234 177 208 192 183 193 230 221 235 112 116 352 29 330 325 300 341 287 173 213 193 185 198 220 236 320 297 270 276 270 256 254 247 247 246 248 252 258 260 226 226 224 222 227 233 254 257 339 304 33 84 138 113 120 137
18 357 345 34 350 32 46 259 338 3 323 219 285 190 156 29 44 47 18 6 344 336 312 323 280 205 206 170 25 290 266 255 258 255 282 288 287 265 254 251 248 247 246 250 257 253 269 191 198 207 222 226 242 241 272 310 3 86 133 124 126 146
29 2 339 354 35 53 343 314 208 66 6 318 237 219 155 64 64 345 277 202 201 290 276 324 293 277 232 162 322 257 229 236 250 267 281 284 269 268 259 257 251 249 248 247 243 238 209 201 280 159 201 219 251 299 194 260 322 126 121 135 138 148
29 22 357 354 349 110 359 355 352 30 316 350 306 10 54 80 135 184 237 282 291 250 239 216 248 249 295 213 210 168 213 267 44 304 285 271 272 257 236 245 241 236 239 240 233 218 162 172 262 178 204 199 226 241 264 201 225 107 131 124 137 150
12 25 6 343 357 345 56 13 8 341 333 332 351 336 75 90 109 178 180 177 262 271 238 207 218 301 290 68 149 353 33 21 347 316 285 253 260 273 258 242 250 219 229 231 220 162 177 186 203 217 202 211 196 208 195 230 265 123 122 124 146 151
36 3 9 340 2 15 19 21 38 337 338 14 336 327 57 121 217 192 180 174 201 239 249 165 198 248 196 201 221 191 110 72 309 322 351 304 285 273 273 260 258 258 224 240 147 156 163 198 203 206 199 208 190 191 163 235 196 131 127 134 149 155
27 25 9 346 25 21 1 8 30 355 353 345 334 1 12 53 144 154 173 206 244 304 288 69 162 230 276 255 214 116 85 80 318 309 301 287 297 312 290 301 277 254 247 71 71 309 222 183 211 217 186 203 230 218 177 215 221 130 128 137 146 158
33 26 18 4 22 24 358 7 25 346 340 1 6 358 328 304 74 148 166 34 286 304 311 314 240 227 268 269 294 69 82 74 242 257 254 248 188 264 280 265 257 253 50 3 88 235 229 198 195 256 203 189 184 49 348 245 258 131 134 136 144 160
39 29 17 12 21 28 358 0 349 325 30 13 345 306 306 357 324 89 80 6 330 315 291 304 279 252 251 270 345 82 134 164 356 341 323 275 195 230 265 280 264 257 110 282 241 238 224 103 247 232 179 154 110 117 326 278 259 136 130 141 144 156
43 34 26 23 16 32 356 352 339 330 66 359 330 293 332 9 357 16 41 73 345 325 314 287 282 248 275 313 336 311 57 54 26 264 250 251 226 237 273 272 274 12 74 179 264 273 225 192 248 289 196 157 159 89 241 260 301 134 132 136 138 153
53 33 33 30 26 25 6 356 335 28 357 20 316 306 344 48 31 345 327 36 114 289 323 308 309 300 274 268 255 284 95 183 250 248 251 276 310 280 248 254 277 274 197 120 76 280 268 232 188 175 172 94 48 70 274 273 293 137 127 132 143 158
57 47 35 39 30 33 10 356 343 25 351 6 322 342 343 21 354 347 314 21 350 53 338 297 291 291 301 311 306 273 186 243 269 248 215 225 291 292 267 247 246 287 349 66 169 200 283 296 208 124 106 96 108 117 301 308 290 161 142 142 151 155
50 44 45 35 37 42 14 355 354 13 354 353 313 335 359 339 353 310 332 337 38 75 315 302 327 326 326 319 302 306 298 232 209 233 240 157 217 245 232 238 257 176 206 186 139 208 249 288 321 56 74 83 34 8 346 301 284 349 126 140 145 148
48 53 40 43 32 48 30 347 13 0 6 355 318 13 356 348 358 1 344 341 19 12 354 27 55 295 319 324 322 314 277 261 259 250 236 230 208 225 231 252 12 352 358 329 46 136 116 14 304 343 41 21 11 298 298 287 312 341 150 128 129 143
51 49 48 32 30 36 52 357 25 357 41 338 324 350 334 349 324 349 322 322 21 358 349 337 341 159 278 299 283 285 305 307 290 297 296 293 129 283 302 328 64 82 34 300 334 26 26 352 34 348 9 360 336 330 342 334 308 318 241 141 144 165
47 51 32 40 20 32 23 19 20 3 31 321 326 315 16 12 329 342 14 7 352 347 355 341 337 342 353 321 313 304 297 309 317 311 304 290 293 242 262 310 18 89 130 167 175 272 144 284 61 15 59 352 310 315 310 310 309 319 340 162 147 165
50 25 39 35 24 26 23 23 17 356 9 2 346 300 11 62 340 11 21 349 351 3 347 335 337 343 332 332 325 319 265 279 309 306 289 307 280 278 272 64 275 221 150 201 198 173 173 79 10 42 331 303 279 302 336 333 325 331 336 291 174 164
41 25 23 37 31 25 21 30 357 17 1 8 337 337 28 337 17 344 26 354 358 353 341 341 343 336 335 332 338 334 331 320 284 264 275 272 273 316 320 313 258 262 194 228 231 227 161 154 186 111 31 305 288 333 326 330 321 325 306 322 295 160
69 34 11 31 40 28 19 21 5 10 0 358 348 344 346 3 7 28 13 354 345 352 336 325 333 327 326 335 329 324 323 329 319 305 288 285 312 268 330 297 276 299 280 267 219 68 275 142 107 92 64 298 328 310 318 327 312 305 316 330 328 307
104 73 29 12 42 36 13 14 17 9 327 22 1 359 8 3 12 24 2 345 338 331 316 322 322 322 316 322 324 318 316 322 316 311 312 308 290 283 236 252 277 238 261 285 259 135 244 138 122 115 158 227 224 258 309 310 302 298 303 321 322 332
87 97 58 20 42 45 21 36 356 7 337 9 355 360 17 357 9 12 352 326 324 327 345 340 330 319 318 302 295 315 329 318 321 310 306 295 293 269 272 354 294 291 232 237 249 154 183 150 127 155 156 134 322 330 245 275 284 285 278 317 347 327
80 81 87 41 30 34 45 42 8 356 352 2 352 24 15 359 15 11 354 0 349 349 344 331 322 324 321 333 342 328 318 322 317 326 323 316 314 311 276 230 229 257 264 219 231 181 177 209 148 117 90 95 175 268 309 283 251 253 277 305 348 336
111 122 86 58 28 47 54 34 357 29 342 26 6 30 8 5 10 358 351 353 1 338 337 326 321 322 315 315 320 328 334 336 334 325 324 317 314 307 291 245 260 252 252 272 226 206 187 177 202 141 152 175 132 130 250 273 305 308 252 258 264 264
137 132 99 73 53 37 44 23 346 31 340 39 34 32 29 7 8 344 343 351 340 337 332 322 318 309 306 308 315 312 347 342 332 326 320 320 322 320 312 288 222 226 239 259 263 237 208 224 217 208 124 133 123 153 192 157 233 247 194 229 225 207
142 137 120 91 88 26 58 14 12 9 4 17 13 36 17 2 346 334 337 331 305 323 320 315 307 304 304 301 295 314 353 333 316 322 324 319 318 314 306 300 304 284 243 245 269 278 238 216 177 191 108 306 42 125 146 165 152 214 213 242 238 196
167 141 147 125 72 42 56 39 23 26 350 9 32 34 23 353 333 323 334 321 314 301 302 297 297 309 307 296 290 346 352 324 327 328 322 318 315 310 309 308 322 350 305 327 279 270 242 159 217 193 210 218 228 88 147 159 191 133 268 221 214 231
173 130 97 92 134 107 59 28 38 25 346 11 46 29 22 342 325 327 331 316 309 290 277 296 306 302 299 297 295 5 343 334 343 329 325 323 317 316 313 319 325 328 309 296 210 249 275 251 197 157 232 198 202 235 211 245 244 157 155 198 235 205
173 165 140 131 103 93 77 52 76 17 346 2 54 24 2 347 330 330 315 323 308 308 297 294 300 309 300 294 296 25 354 338 330 333 329 322 324 321 323 326 322 322 305 268 292 299 283 267 204 179 172 220 201 209 216 213 202 187 185 179 234 210
178 210 144 166 134 110 83 73 49 30 356 345 50 27 9 346 341 338 330 315 314 317 323 318 299 294 297 299 317 10 351 323 323 313 313 325 315 319 332 327 325 317 283 288 257 254 260 271 240 186 171 190 184 195 204 208 216 204 221 215 210 211
193 212 144 158 159 108 115 43 60 7 21 336 28 9 16 346 341 336 326 322 312 308 311 307 313 315 305 302 315 329 317 330 321 317 319 318 310 311 323 330 329 314 285 238 250 259 261 251 236 206 177 205 224 203 201 200 192 213 215 196 216 252
193 217 156 159 182 156 77 68 82 348 32 327 19 2 28 336 328 335 325 309 304 313 321 327 336 326 321 325 317 296 333 326 303 305 309 315 320 322 326 330 332 326 318 291 240 235 260 253 222 219 219 195 211 269 278 255 122 240 232 238 199 211
203 185 182 180 177 166 179 80 60 353 40 332 36 356 25 347 2 345 329 317 323 330 325 325 345 328 331 323 335 318 307 270 276 285 305 323 327 323 324 325 334 329 319 312 293 256 260 255 218 219 221 199 199 198 217 118 184 220 229 239 217 219
208 176 175 189 178 165 169 127 97 6 30 318 50 350 58 8 339 335 314 307 311 318 325 325 322 329 318 330 323 330 325 317 312 316 330 328 323 326 328 334 338 329 323 312 317 293 246 254 263 247 222 219 202 200 193 201 205 234 224 172 206 214
192 184 176 185 171 176 184 158 128 351 68 301 1 334 88 341 281 308 305 308 310 318 317 319 313 327 333 319 325 334 329 319 313 307 322 315 312 317 320 327 328 325 321 318 311 313 297 268 257 241 217 215 231 197 198 203 185 214 224 195 186 197
192 179 182 181 186 185 178 142 132 212 343 296 343 307 35 46 326 285 301 308 313 315 318 317 327 318 319 311 309 314 307 315 325 321 315 299 303 312 324 328 328 329 327 325 321 316 306 294 275 257 242 244 244 226 193 192 204 209 234 224 196 187
191 185 187 178 184 180 184 154 203 198 293 304 327 321 72 19 346 337 299 301 303 320 328 334 327 319 306 303 303 304 316 325 322 321 314 313 313 329 323 323 328 328 319 324 318 317 316 306 289 276 209 204 227 254 214 196 208 203 225 231 209 195